TimeCST,TemperatureF,Dew PointF,Humidity,Sea Level PressureIn,VisibilityMPH,Wind Direction,Wind SpeedMPH,Gust SpeedMPH,PrecipitationIn,Events,Conditions,WindDirDegrees,DateUTC
12:53 AM,46.9,28.9,50,30.09,10.0,Variable,3.5,-,N/A,,Clear,0,2013-02-19 06:53:00
1:53 AM,44.1,27.0,51,30.11,10.0,Variable,6.9,-,N/A,,Clear,0,2013-02-19 07:53:00
2:53 AM,43.0,23.0,45,30.13,10.0,North,5.8,-,N/A,,Clear,350,2013-02-19 08:53:00
3:53 AM,39.9,23.0,51,30.15,10.0,North,3.5,-,N/A,,Clear,350,2013-02-19 09:53:00
4:53 AM,37.9,21.9,53,30.17,10.0,Calm,Calm,-,N/A,,Clear,0,2013-02-19 10:53:00
5:53 AM,35.1,23.0,61,30.19,10.0,North,3.5,-,N/A,,Clear,10,2013-02-19 11:53:00
6:53 AM,33.1,21.9,64,30.22,10.0,Calm,Calm,-,N/A,,Clear,0,2013-02-19 12:53:00
7:53 AM,33.1,27.0,78,30.25,10.0,Calm,Calm,-,N/A,,Clear,0,2013-02-19 13:53:00
8:53 AM,44.1,21.9,42,30.28,10.0,NE,9.2,-,N/A,,Clear,40,2013-02-19 14:53:00
9:53 AM,50.0,19.0,29,30.30,10.0,NNE,4.6,-,N/A,,Clear,20,2013-02-19 15:53:00
10:53 AM,52.0,19.0,27,30.31,10.0,NE,8.1,-,N/A,,Clear,40,2013-02-19 16:53:00
12:53 PM,57.0,21.0,25,30.28,10.0,Variable,5.8,-,N/A,,Clear,0,2013-02-19 18:53:00
1:53 PM,60.1,19.0,20,30.25,10.0,WNW,4.6,-,N/A,,Clear,300,2013-02-19 19:53:00
2:53 PM,59.0,17.1,20,30.22,10.0,Variable,6.9,16.1,N/A,,Clear,0,2013-02-19 20:53:00
3:53 PM,59.0,18.0,20,30.22,10.0,North,5.8,-,N/A,,Clear,360,2013-02-19 21:53:00
4:53 PM,57.0,19.0,23,30.22,10.0,ENE,5.8,-,N/A,,Clear,70,2013-02-19 22:53:00
6:53 PM,46.9,21.0,36,30.23,10.0,ENE,4.6,-,N/A,,Clear,60,2013-02-20 00:53:00
7:53 PM,42.1,25.0,51,30.24,10.0,East,3.5,-,N/A,,Clear,90,2013-02-20 01:53:00
8:53 PM,39.9,24.1,53,30.24,10.0,Calm,Calm,-,N/A,,Clear,0,2013-02-20 02:53:00
9:53 PM,36.0,28.0,73,30.25,10.0,East,3.5,-,N/A,,Clear,90,2013-02-20 03:53:00
10:53 PM,36.0,27.0,70,30.24,10.0,Calm,Calm,-,N/A,,Clear,0,2013-02-20 04:53:00
11:53 PM,37.0,30.0,76,30.23,10.0,Calm,Calm,-,N/A,,Clear,0,2013-02-20 05:53:00